User: anonymous   Login
Location: Steinbach
(49.5170°N, 96.6830°W)
Time: 08:40:43
(UTC-05:00)
Language:

NOSS 3-4 (A) - Orbit

View from above orbital plane
View from above orbital plane
View from above satellite
View from above satellite

Ground track
Ground track

The orbit data is extracted from the following two-line orbital elements,

1 31701U 07027A   17079.78322718 0.00000000  00000-0  00000-0 0    03
2 31701  63.4029 308.7728 0179000  24.7936 335.2064 13.40726908    04
Epoch (UTC): 20 March 2017 18:47:50
Eccentricity: 0.0179000
inclination: 63.4029°
perigee height: 972 km
apogee height: 1240 km
right ascension of ascending node: 308.7728°
argument of perigee: 24.7936°
revolutions per day: 13.40726908
mean anomaly at epoch: 335.2064°
orbit number at epoch: 0

The dashed part of the orbit path shows where the satellite is in the earth's shadow,  

DLR